This is the latest recevied weather packets stored in our database for station/object F5ZQC-13. If no packets are shown the sender has not sent any weather packets the latest 10 day(s).
| Time | Temp. | Humidity | Pressure | Rain* | Wind** | Luminosity | Snow |
|---|---|---|---|---|---|---|---|
| 1778026006 | 11.67° C | 57% | 1009.7 hPa | 0 mm | - | - | - |
| 1778025885 | 11.67° C | 57% | 1009.7 hPa | 0 mm | - | - | - |
| 1778025798 | 11.67° C | 55% | 1009.9 hPa | 0 mm | - | - | - |
| 1778025761 | 11.67° C | 55% | 1009.9 hPa | 0 mm | - | - | - |
| 1778025517 | 11.67° C | 56% | 1010 hPa | 0 mm | - | - | - |
| 1778025395 | 11.67° C | 54% | 1009.8 hPa | 0 mm | - | - | - |
| 1778025271 | 11.67° C | 56% | 1010.1 hPa | 0 mm | - | - | - |
| 1778025028 | 11.67° C | 54% | 1010 hPa | 0 mm | - | - | - |
| 1778024906 | 11.67° C | 56% | 1009.8 hPa | 0 mm | - | - | - |
| 1778024660 | 11.67° C | 56% | 1009.9 hPa | 0 mm | - | - | - |
| 1778024417 | 11.67° C | 56% | 1010.2 hPa | 0 mm | - | - | - |
| 1778024294 | 11.67° C | 57% | 1009.6 hPa | 0 mm | - | - | - |
| 1778024171 | 11.67° C | 57% | 1010.1 hPa | 0 mm | - | - | - |
| 1778023927 | 11.67° C | 57% | 1009.9 hPa | 0 mm | - | - | - |
| 1778023683 | 11.67° C | 57% | 1010.3 hPa | 0 mm | - | - | - |
| 1778023588 | 11.67° C | 56% | 1010.1 hPa | 0 mm | - | - | - |
| 1778023439 | 11.67° C | 53% | 1010.1 hPa | 0 mm | - | - | - |
| 1778023316 | 11.67° C | 56% | 1009.9 hPa | 0 mm | - | - | - |
| 1778023195 | 11.67° C | 56% | 1010 hPa | 0 mm | - | - | - |
| 1778023119 | 12.22° C | 56% | 1010.2 hPa | 0 mm | - | - | - |
| 1778023075 | 12.22° C | 56% | 1010.2 hPa | 0 mm | - | - | - |
| 1778022933 | 12.22° C | 57% | 1010.3 hPa | 0 mm | - | - | - |
| 1778022571 | 12.22° C | 56% | 1009.6 hPa | 0 mm | - | - | - |
| 1778022445 | 12.22° C | 57% | 1010.3 hPa | 0 mm | - | - | - |
| 1778022324 | 12.22° C | 57% | 1010.2 hPa | 0 mm | - | - | - |
* Rain since midnight (hover to see other rain measurements)
** Current wind speed in m/s (hover to see current wind gust speed)